Theta_e
326 325 327 332 333 336 336 332 326 317 319 323 324 328 329 330 331 331 330 325 324 321 321 322 323 324 324 325 325 325 326 325 326 325 325 325 325 325
329 330 330 331 331 333 333 330 329 323 318 324 325 326 328 329 331 329 329 326 321 320 320 320 319 320 321 321 322 322 323 323 322 322 322 323 323 322
329 328 328 330 330 331 332 331 328 325 320 323 326 327 327 327 328 327 328 326 324 319 320 318 317 317 318 318 318 319 319 318 317 317 317 316 317 317
326 327 327 329 329 326 327 330 328 329 324 320 324 325 325 327 326 325 326 327 327 320 318 317 316 316 316 315 314 312 311 311 310 311 311 312 311 311
327 327 328 328 327 325 326 329 329 328 326 323 322 325 324 325 323 324 325 324 323 321 316 316 316 315 314 312 311 310 307 306 305 306 306 306 307 308
329 331 331 328 330 330 327 328 327 325 325 322 322 321 321 322 323 320 319 324 322 324 316 315 315 312 311 311 309 307 304 302 302 302 302 301 302 303
328 328 330 328 322 324 328 328 326 324 323 322 320 319 319 320 319 321 321 322 325 327 323 322 320 315 313 309 308 306 303 302 301 300 299 299 299 299
326 327 325 320 316 312 313 316 323 323 321 321 320 318 320 320 319 321 322 321 319 327 318 314 315 312 311 309 303 301 300 300 299 299 298 298 298 297
327 327 324 325 326 325 311 312 312 310 315 324 320 321 320 322 326 324 325 324 322 324 317 310 313 310 310 305 300 299 298 298 298 298 297 297 297 296
329 328 325 330 324 327 324 324 327 323 323 324 324 325 330 331 330 328 327 321 321 322 322 311 313 309 308 305 300 298 296 296 296 296 296 296 295 296
328 329 329 330 304 308 322 320 320 318 305 301 303 304 304 307 317 324 321 321 317 316 319 314 314 311 310 307 303 297 296 295 295 295 295 295 294 296
327 327 309 317 300 308 328 327 324 322 321 322 322 314 317 312 311 331 326 322 318 313 316 313 312 312 308 309 305 305 303 296 295 294 295 295 293 300
325 324 323 300 300 303 308 329 323 321 314 323 322 322 323 322 322 323 327 321 316 316 314 316 312 311 311 308 308 302 302 300 301 300 295 294 294 294
326 328 323 299 298 300 308 295 299 309 321 318 317 316 316 315 315 315 317 318 320 318 316 318 311 307 304 301 302 301 302 301 300 299 299 297 295 294
329 316 300 297 296 303 295 296 302 322 321 318 316 315 315 314 312 311 310 310 308 307 308 310 306 305 303 301 298 298 299 301 299 298 298 297 297 297
306 313 306 306 301 311 309 306 320 321 320 319 317 315 313 312 310 310 308 306 303 301 304 306 306 303 298 298 298 298 298 297 298 297 297 297 297 297
315 317 319 320 321 321 322 320 320 318 319 319 316 312 311 311 309 309 307 307 304 300 299 300 303 303 301 300 297 297 297 297 296 295 295 295 296 296
318 319 318 318 318 319 319 318 319 314 318 317 315 313 311 310 309 309 309 307 303 300 299 300 299 298 297 296 294 295 297 295 295 295 295 293 293 295
321 321 320 319 318 318 319 320 319 319 320 318 316 314 313 311 307 308 307 305 301 299 298 299 298 297 294 294 295 289 293 294 294 294 294 293 292 293
320 320 320 321 320 319 318 318 319 319 317 317 316 314 313 311 309 308 306 304 301 299 297 297 295 297 296 296 294 293 286 292 291 291 291 292 293 288
313 315 318 319 319 319 319 317 318 318 316 316 315 314 312 311 310 309 306 294 295 296 294 292 292 287 295 294 291 290 290 288 288 288 289 288 289 290
317 315 314 315 317 317 317 317 315 314 315 315 314 313 313 311 310 307 304 297 294 294 293 292 293 293 291 289 289 287 289 290 289 287 287 285 287 286
321 319 317 315 314 314 314 314 315 314 314 313 312 312 311 309 308 307 301 298 296 294 292 291 291 292 292 291 289 287 286 287 289 290 291 286 285 285
Wind_Speed
4 2 2 2 3 5 7 6 4 3 2 3 3 11 10 11 15 11 11 13 11 10 11 10 8 8 9 7 6 4 2 1 1 3 4 5 7 9
4 5 5 6 6 6 6 5 5 4 3 2 5 14 12 10 14 11 10 11 10 8 8 8 8 7 7 6 6 3 1 1 2 3 4 5 7 9
6 6 7 8 6 6 5 5 6 7 8 5 9 14 12 14 11 10 9 7 5 8 8 7 7 7 6 5 3 1 1 2 4 7 7 8 8 9
6 7 8 8 9 6 3 7 8 7 11 14 11 9 11 12 12 11 7 5 5 7 7 7 6 5 4 3 3 3 5 6 8 7 7 8 9 11
7 7 8 10 9 6 5 7 7 7 10 11 9 7 8 9 8 7 6 4 4 7 6 6 7 6 6 7 6 8 10 11 11 11 13 14 13 13
6 7 9 9 11 11 7 9 9 8 10 10 10 8 5 7 7 7 4 3 6 6 10 10 10 12 12 13 16 16 16 15 14 14 13 12 10 11
8 7 6 7 11 7 6 8 10 9 8 9 8 8 6 7 9 3 5 5 6 6 8 7 9 9 10 16 19 19 18 16 14 15 14 10 12 12
8 8 9 12 11 12 12 10 8 11 10 8 8 9 8 5 5 7 8 9 7 6 9 9 9 10 9 10 14 18 16 14 15 13 11 10 8 8
8 9 7 7 12 13 12 15 14 14 10 9 13 10 9 7 10 10 8 7 8 8 10 9 8 10 9 10 16 15 14 13 11 10 10 11 13 10
9 9 10 13 9 13 10 10 13 9 6 4 7 9 9 11 11 9 9 10 9 7 7 8 8 9 9 9 11 12 11 10 10 12 15 14 10 5
10 9 12 13 7 11 9 9 8 7 8 11 11 9 12 10 8 9 9 9 8 6 2 9 8 8 6 6 8 10 9 11 13 12 12 12 13 10
8 10 10 10 10 6 8 9 9 8 9 10 9 11 10 8 7 2 8 6 7 6 5 4 9 8 6 5 4 3 5 6 8 7 8 11 14 6
8 7 6 9 8 8 5 6 8 10 7 10 9 8 7 6 4 4 3 5 5 3 5 4 7 6 1 5 5 4 4 5 5 4 7 6 1 6
10 10 9 9 9 6 4 10 12 10 8 7 8 8 7 7 6 7 8 8 8 7 7 4 4 4 4 4 3 3 2 4 5 5 5 4 7 7
7 7 11 8 8 6 8 10 9 7 7 7 7 7 6 7 10 10 11 13 12 11 8 8 6 6 4 4 4 3 2 1 4 5 6 6 7 7
8 6 7 7 4 8 8 6 4 5 6 6 7 8 8 8 8 8 8 7 8 8 10 10 9 7 8 6 4 3 3 3 4 6 6 5 5 6
9 6 6 5 6 6 6 6 5 6 6 6 8 8 8 8 7 6 7 5 6 7 7 7 8 9 8 4 4 3 3 4 5 6 6 6 5 5
6 7 7 7 8 8 8 7 7 7 7 8 8 9 9 9 8 8 6 5 7 7 7 7 7 7 6 7 11 3 2 4 4 4 5 6 5 5
7 8 8 8 8 8 8 8 9 8 8 8 9 10 9 9 10 8 8 7 7 7 6 5 5 4 4 2 5 8 5 4 5 5 5 6 7 6
8 9 9 9 9 9 8 8 8 8 9 9 9 9 9 9 10 9 8 8 7 7 7 6 4 3 1 1 2 4 3 5 5 5 5 5 4 4
10 10 9 9 9 9 9 9 9 9 9 9 9 10 10 10 10 9 8 6 8 6 8 5 5 3 5 2 3 2 3 6 3 4 6 6 6 5
10 10 10 9 9 10 9 9 9 8 9 9 10 10 10 10 10 12 11 12 10 10 9 6 4 3 3 1 1 1 1 2 5 5 5 3 4 5
11 11 10 10 10 9 10 10 11 11 12 11 10 11 11 12 11 10 11 11 10 10 12 7 5 3 1 1 1 2 4 4 3 3 2 5 4 8
Wind_Direction
136 146 141 124 140 142 145 140 125 110 106 118 124 136 121 122 123 125 126 125 128 129 130 132 144 147 139 151 156 149 171 205 327 326 324 303 296 292
147 140 139 140 123 126 131 114 111 124 101 55 64 121 122 121 117 118 125 123 119 114 126 143 146 146 138 155 165 159 211 5 328 306 306 297 294 296
143 142 129 135 120 122 141 137 120 115 116 103 98 128 117 123 116 111 116 112 129 136 135 149 148 140 156 165 132 86 354 340 1 3 1 4 354 347
127 129 126 127 132 113 93 125 113 135 130 130 125 120 116 115 111 114 121 134 129 137 144 136 137 141 123 81 65 66 53 44 43 40 41 37 36 33
128 127 131 127 130 143 124 116 120 109 131 130 124 110 114 122 109 103 111 96 98 128 139 117 96 88 97 94 90 75 68 66 69 65 58 54 48 44
132 128 128 146 144 142 138 129 123 115 124 130 126 113 109 119 114 122 116 101 113 119 73 72 81 82 82 86 83 83 76 69 69 64 60 50 47 45
106 97 108 109 101 113 128 129 125 121 133 124 126 119 127 130 132 126 117 139 109 118 106 103 108 97 91 86 85 79 79 74 71 64 55 43 40 38
113 109 111 104 87 87 84 86 112 131 135 134 136 136 134 112 130 146 153 154 126 126 114 106 103 90 82 76 86 81 76 73 65 62 54 47 53 52
129 115 101 114 121 110 94 96 84 77 80 131 134 145 149 159 152 160 157 144 118 134 123 109 110 103 100 94 80 84 78 71 70 65 54 45 39 35
125 124 126 129 121 126 108 108 104 77 59 97 132 153 158 152 160 146 132 115 116 132 138 124 131 114 109 98 79 82 83 74 64 53 41 30 11 343
127 136 136 127 111 110 110 112 113 102 71 70 72 86 105 113 137 138 148 147 129 133 163 131 152 135 128 128 121 106 83 63 50 40 32 19 355 306
116 110 92 117 107 92 139 145 135 123 120 118 106 94 104 86 56 173 161 160 134 143 156 134 158 158 166 156 124 93 91 68 82 55 43 21 2 0
131 129 124 125 110 77 96 141 127 135 119 116 114 114 117 117 96 81 101 159 148 100 132 151 177 183 231 139 148 75 62 41 25 41 151 88 16 357
136 143 152 151 133 122 99 122 121 136 134 128 127 124 121 113 95 82 78 75 54 84 126 229 135 167 143 141 122 89 96 52 11 9 360 16 189 166
144 108 108 122 119 110 124 135 146 132 139 140 131 125 120 109 113 101 89 94 83 68 62 67 95 113 93 91 110 59 324 117 12 7 359 4 7 6
114 97 90 101 71 107 134 172 164 158 157 151 142 127 130 143 136 139 131 122 104 86 63 63 84 101 105 89 87 86 28 4 4 17 340 360 5 19
134 145 154 163 162 163 163 168 167 166 171 152 147 152 153 153 147 150 150 157 129 139 124 101 82 79 73 80 97 50 18 14 8 1 344 345 11 9
164 172 181 184 187 182 180 175 181 184 180 172 170 170 168 169 160 166 167 157 144 149 143 137 137 131 133 95 19 22 17 349 3 353 340 331 342 11
195 192 195 195 197 194 194 192 190 189 176 184 182 179 174 174 169 171 168 160 153 144 133 144 165 216 196 198 121 21 334 357 339 344 350 341 328 343
222 210 209 204 205 202 201 200 196 177 189 188 187 183 183 176 183 177 174 168 158 145 131 132 139 146 231 38 144 101 32 343 354 337 336 334 312 228
214 221 219 211 208 207 207 204 198 192 188 186 189 187 185 186 186 181 170 153 131 135 134 99 50 348 72 108 160 154 112 117 11 338 339 334 335 303
214 217 219 221 215 211 207 206 201 190 190 193 192 193 192 193 186 175 162 152 146 139 113 104 96 57 49 322 146 235 260 332 173 164 107 34 332 315
222 218 218 217 218 213 209 204 203 201 203 198 195 192 185 185 181 172 159 159 149 140 127 139 112 115 170 221 255 258 318 309 327 330 301 128 331 303